BCS225P LEPA-UBBB

Flight info

Callsign BCS225P
Flight time N/A
Altitude 32000
Route OSGAL N859 GENIO M134 LUXUR/N0485F330 UM134 ANB UG6 DIMAO UL874 OMENI/N0499F290 L30 GZO M978 BINKO N45 ROTAS/N0485F330 UN45 MONUV UP32 MIL UR32 LETSO/N0480F350 UR32 HAY UT54 SIV UA4 ERZ UB374 INDUR N161 EDATA M11 ERLEV
Aircraft B77L/H-SDE1E2E3FGHIJ2J3J4J5M1RWXY/LB1D1

Departure

Time N/A
Airport Palma de Mallorca Airport (LEPA)

Arrival

Time 2026-05-05 22:10
Airport Heydar Aliyev International Airport (UBBB)
Time Latitude Longitude Altitude Speed Heading
2026-05-05 21:23 40.12279 43.71978 33918 ft 514 kts 84°
2026-05-05 21:23 40.12949 43.76577 33918 ft 516 kts 83°
2026-05-05 21:23 40.14320 43.85783 33909 ft 517 kts 83°
2026-05-05 21:24 40.15656 43.95045 33884 ft 519 kts 84°
2026-05-05 21:24 40.16960 44.04332 33898 ft 520 kts 84°
2026-05-05 21:25 40.18252 44.13629 33890 ft 520 kts 84°
2026-05-05 21:25 40.19540 44.22933 33879 ft 520 kts 84°
2026-05-05 21:26 40.20822 44.32236 33865 ft 519 kts 84°
2026-05-05 21:26 40.22093 44.41527 33887 ft 519 kts 84°
2026-05-05 21:27 40.23358 44.50830 33884 ft 520 kts 84°
2026-05-05 21:27 40.24623 44.60152 33885 ft 520 kts 84°
2026-05-05 21:28 40.25951 44.69478 33875 ft 521 kts 84°
2026-05-05 21:28 40.27298 44.78809 33892 ft 522 kts 84°
2026-05-05 21:29 40.28630 44.88151 33904 ft 523 kts 84°
2026-05-05 21:29 40.29939 44.97448 33877 ft 522 kts 84°
2026-05-05 21:30 40.31247 45.06806 33906 ft 522 kts 84°
2026-05-05 21:30 40.32546 45.16157 33924 ft 522 kts 84°
2026-05-05 21:31 40.33841 45.25528 33922 ft 523 kts 84°
2026-05-05 21:31 40.35130 45.34913 33916 ft 523 kts 84°
2026-05-05 21:32 40.36412 45.44307 33912 ft 523 kts 84°
2026-05-05 21:32 40.37685 45.53694 33931 ft 523 kts 84°
2026-05-05 21:33 40.38953 45.63094 33911 ft 524 kts 84°
2026-05-05 21:33 40.40276 45.72489 33924 ft 524 kts 83°
2026-05-05 21:34 40.41668 45.81870 33941 ft 524 kts 83°
2026-05-05 21:34 40.43048 45.91245 33951 ft 524 kts 83°
2026-05-05 21:35 40.44410 46.00640 33938 ft 523 kts 83°
2026-05-05 21:35 40.45755 46.10031 33941 ft 524 kts 83°
2026-05-05 21:36 40.47085 46.19372 33940 ft 525 kts 83°
2026-05-05 21:36 40.48421 46.28805 33916 ft 525 kts 83°
2026-05-05 21:37 40.49751 46.38244 33937 ft 526 kts 83°
2026-05-05 21:37 40.51075 46.47695 33940 ft 526 kts 83°
2026-05-05 21:38 40.52393 46.57164 33941 ft 527 kts 83°
2026-05-05 21:38 40.53702 46.66634 33936 ft 527 kts 83°
2026-05-05 21:39 40.55003 46.76103 33946 ft 527 kts 83°
2026-05-05 21:39 40.56080 46.83989 33943 ft 527 kts 84°
2026-05-05 21:40 40.57367 46.93468 33963 ft 527 kts 84°
2026-05-05 21:40 40.58647 47.02955 33955 ft 526 kts 84°
2026-05-05 21:41 40.59920 47.12438 33967 ft 526 kts 84°
2026-05-05 21:41 40.60685 47.21955 33958 ft 520 kts 95°
2026-05-05 21:42 40.60395 47.31406 33977 ft 517 kts 98°
2026-05-05 21:42 40.60049 47.40863 33972 ft 518 kts 97°
2026-05-05 21:43 40.59747 47.50335 33971 ft 518 kts 97°
2026-05-05 21:43 40.59457 47.59811 33978 ft 519 kts 97°
2026-05-05 21:44 40.59159 47.69289 33977 ft 518 kts 97°
2026-05-05 21:44 40.58849 47.78764 33982 ft 518 kts 97°
2026-05-05 21:45 40.58532 47.88239 33983 ft 518 kts 97°
2026-05-05 21:45 40.58572 47.97747 33976 ft 524 kts 89°
2026-05-05 21:46 40.59745 48.07177 33982 ft 527 kts 84°
2026-05-05 21:46 40.60086 48.16666 33658 ft 518 kts 102°
2026-05-05 21:47 40.59437 48.21335 32697 ft 518 kts 111°
2026-05-05 21:47 40.58302 48.25774 31845 ft 508 kts 118°
2026-05-05 21:47 40.56945 48.30058 30956 ft 507 kts 118°
2026-05-05 21:47 40.55594 48.34342 30126 ft 507 kts 118°
2026-05-05 21:48 40.54268 48.38603 29436 ft 500 kts 118°
2026-05-05 21:48 40.52973 48.42821 28809 ft 494 kts 118°
2026-05-05 21:48 40.51701 48.46989 28190 ft 488 kts 118°
2026-05-05 21:48 40.50449 48.51108 27614 ft 483 kts 118°
2026-05-05 21:49 40.49208 48.55191 27021 ft 478 kts 118°
2026-05-05 21:49 40.47980 48.59228 26448 ft 474 kts 118°
2026-05-05 21:49 40.46759 48.63227 25874 ft 470 kts 118°
2026-05-05 21:49 40.45549 48.67187 25291 ft 465 kts 118°
2026-05-05 21:50 40.44355 48.71105 24775 ft 460 kts 118°
2026-05-05 21:50 40.43166 48.74985 24225 ft 456 kts 119°
2026-05-05 21:50 40.41980 48.78830 23687 ft 452 kts 119°
2026-05-05 21:50 40.40801 48.82643 23077 ft 449 kts 119°
2026-05-05 21:51 40.39635 48.86421 22495 ft 445 kts 119°
2026-05-05 21:51 40.38481 48.90163 21973 ft 440 kts 119°
2026-05-05 21:51 40.37338 48.93865 21407 ft 436 kts 119°
2026-05-05 21:51 40.36206 48.97528 20919 ft 431 kts 119°
2026-05-05 21:52 40.33968 49.04749 19921 ft 424 kts 119°
2026-05-05 21:52 40.32859 49.08317 19425 ft 421 kts 118°
2026-05-05 21:52 40.31757 49.11858 18929 ft 418 kts 118°
2026-05-05 21:53 40.30660 49.15378 18434 ft 416 kts 118°
2026-05-05 21:53 40.29571 49.18870 17870 ft 413 kts 118°
2026-05-05 21:53 40.28489 49.22339 17331 ft 410 kts 119°
2026-05-05 21:53 40.27412 49.25782 16810 ft 407 kts 119°
2026-05-05 21:54 40.26339 49.29205 16326 ft 405 kts 118°
2026-05-05 21:54 40.25273 49.32604 15824 ft 403 kts 118°
2026-05-05 21:54 40.24211 49.35987 15321 ft 401 kts 118°
2026-05-05 21:54 40.23153 49.39350 14828 ft 399 kts 118°
2026-05-05 21:55 40.22098 49.42704 14335 ft 398 kts 118°
2026-05-05 21:55 40.21046 49.46043 13830 ft 396 kts 118°
2026-05-05 21:55 40.19995 49.49373 13288 ft 395 kts 117°
2026-05-05 21:55 40.18948 49.52688 12733 ft 393 kts 117°
2026-05-05 21:56 40.17908 49.55981 12254 ft 391 kts 117°
2026-05-05 21:56 40.16876 49.59245 11801 ft 384 kts 117°
2026-05-05 21:56 40.15859 49.62461 11294 ft 382 kts 117°
2026-05-05 21:56 40.14847 49.65652 10994 ft 375 kts 117°
2026-05-05 21:57 40.13863 49.68755 10813 ft 365 kts 117°
2026-05-05 21:57 40.12904 49.71778 10640 ft 355 kts 117°
2026-05-05 21:57 40.11984 49.74675 10415 ft 340 kts 117°
2026-05-05 21:57 40.11108 49.77439 10261 ft 319 kts 117°
2026-05-05 21:58 40.10282 49.80037 10111 ft 299 kts 118°
2026-05-05 21:58 40.09507 49.82466 9962 ft 282 kts 118°
2026-05-05 21:58 40.08766 49.84784 9638 ft 271 kts 118°
2026-05-05 21:58 40.08055 49.87000 9390 ft 258 kts 118°
2026-05-05 21:59 40.07365 49.89147 9132 ft 259 kts 118°
2026-05-05 21:59 40.06646 49.91367 8851 ft 270 kts 118°
2026-05-05 21:59 40.05922 49.93622 8508 ft 266 kts 118°
2026-05-05 21:59 40.05225 49.95806 8185 ft 254 kts 118°
2026-05-05 22:00 40.04551 49.97909 7948 ft 253 kts 118°
2026-05-05 22:00 40.03848 50.00080 7680 ft 265 kts 118°
2026-05-05 22:00 40.03134 50.02295 7503 ft 262 kts 118°
2026-05-05 22:00 40.02596 50.04513 7354 ft 255 kts 99°
2026-05-05 22:01 40.02852 50.06782 7121 ft 255 kts 75°
2026-05-05 22:01 40.03505 50.08903 6859 ft 249 kts 72°
2026-05-05 22:01 40.04160 50.10956 6631 ft 242 kts 72°
2026-05-05 22:01 40.04810 50.12968 6473 ft 241 kts 71°
2026-05-05 22:02 40.05618 50.14909 6370 ft 249 kts 52°
2026-05-05 22:02 40.07034 50.16246 6299 ft 258 kts 19°
2026-05-05 22:02 40.08799 50.16539 6188 ft 258 kts 354°
2026-05-05 22:02 40.10583 50.16231 5941 ft 259 kts 348°
2026-05-05 22:03 40.12284 50.15625 5623 ft 247 kts 325°
2026-05-05 22:03 40.13523 50.14219 5407 ft 230 kts 310°
2026-05-05 22:03 40.14683 50.12753 5208 ft 236 kts 317°
2026-05-05 22:03 40.16045 50.11510 4985 ft 241 kts 329°
2026-05-05 22:04 40.17569 50.10596 4769 ft 240 kts 339°
2026-05-05 22:04 40.19156 50.09967 4542 ft 238 kts 345°
2026-05-05 22:04 40.20774 50.09531 4271 ft 237 kts 351°
2026-05-05 22:04 40.22387 50.09243 4004 ft 230 kts 355°
2026-05-05 22:05 40.23930 50.09064 3780 ft 221 kts 359°
2026-05-05 22:05 40.25455 50.08942 3542 ft 213 kts 359°
2026-05-05 22:05 40.26891 50.08852 3313 ft 207 kts 360°
2026-05-05 22:05 40.28314 50.08773 3082 ft 199 kts 360°
2026-05-05 22:06 40.29629 50.08701 2858 ft 180 kts
2026-05-05 22:06 40.30827 50.08607 2683 ft 169 kts 354°
2026-05-05 22:06 40.31991 50.08284 2520 ft 168 kts 351°
2026-05-05 22:06 40.33117 50.07935 2350 ft 165 kts 351°
2026-05-05 22:07 40.34212 50.07599 2175 ft 163 kts 351°
2026-05-05 22:07 40.35295 50.07267 2126 ft 159 kts 351°
2026-05-05 22:07 40.36374 50.06934 2065 ft 159 kts 351°
2026-05-05 22:07 40.37449 50.06606 2063 ft 159 kts 351°
2026-05-05 22:08 40.38521 50.06281 2052 ft 157 kts 351°
2026-05-05 22:08 40.39581 50.05960 1964 ft 158 kts 351°
2026-05-05 22:08 40.40607 50.05657 1596 ft 145 kts 351°
2026-05-05 22:08 40.41552 50.05385 1124 ft 134 kts 351°
2026-05-05 22:09 40.42421 50.05107 680 ft 123 kts 348°
2026-05-05 22:09 40.43293 50.04847 529 ft 141 kts 347°
2026-05-05 22:09 40.44174 50.04581 358 ft 122 kts 346°
2026-05-05 22:09 40.44995 50.04320 199 ft 128 kts 346°
2026-05-05 22:10 40.45857 50.04052 27 ft 120 kts 346°
2026-05-05 22:10 40.46579 50.03826 5 ft 90 kts 347°
2026-05-05 22:10 40.47040 50.03682 5 ft 46 kts 346°
2026-05-05 22:10 40.47287 50.03604 4 ft 35 kts 346°
2026-05-05 22:11 40.47515 50.03534 1 ft 32 kts 347°
2026-05-05 22:11 40.47676 50.03550 -2 ft 20 kts 66°
2026-05-05 22:11 40.47589 50.03653 0 ft 20 kts 178°
2026-05-05 22:11 40.47455 50.03707 1 ft 20 kts 159°
2026-05-05 22:12 40.47322 50.03772 3 ft 20 kts 160°
2026-05-05 22:12 40.47190 50.03836 3 ft 20 kts 160°
2026-05-05 22:12 40.47058 50.03900 4 ft 20 kts 160°
2026-05-05 22:12 40.46925 50.03964 4 ft 20 kts 160°
2026-05-05 22:13 40.46858 50.04105 5 ft 21 kts 81°
2026-05-05 22:13 40.46894 50.04310 5 ft 25 kts 77°
2026-05-05 22:13 40.46910 50.04561 4 ft 30 kts 88°
2026-05-05 22:13 40.46919 50.04850 4 ft 28 kts 90°
2026-05-05 22:14 40.46920 50.04946 3 ft 13 kts 88°
2026-05-05 22:14 40.46926 50.05132 3 ft 26 kts 88°
2026-05-05 22:14 40.46916 50.05352 2 ft 20 kts 127°
2026-05-05 22:14 40.46784 50.05400 1 ft 20 kts 165°
2026-05-05 22:15 40.46659 50.05482 0 ft 20 kts 151°
2026-05-05 22:15 40.46543 50.05582 -1 ft 20 kts 139°
2026-05-05 22:15 40.46517 50.05728 -2 ft 14 kts 86°
2026-05-05 22:15 40.46555 50.05784 -2 ft 8 kts 10°
2026-05-05 22:16 40.46580 50.05786 -2 ft 0 kts